• In Hungary
  • List of Countries
  • For 7 days
  • Water Temperature
  • Satellite Maps
  • Weather Map
  • News
  • Weather Widgets
  • user-avatar
    Login

    Hourly Weather Zazhogino

    Today, 23 June, Saturday

    Time Temperature Precipitation Wind Pressure Humidity
    00:00 +12°C° 0 mm 2 mps 737 mmHg 92%
    01:00 +11°C° 0 mm 1 mps 738 mmHg 91%
    02:00 +10°C° 0 mm 1 mps 738 mmHg 91%
    03:00 +11°C° 0 mm 1 mps 738 mmHg 89%
    04:00 +11°C° 0 mm 1 mps 738 mmHg 87%
    05:00 +11°C° 0 mm 1 mps 739 mmHg 84%
    06:00 +13°C° 0 mm 1 mps 739 mmHg 76%
    07:00 +15°C° 0 mm 1 mps 739 mmHg 68%
    08:00 +16°C° 0 mm 1 mps 739 mmHg 62%
    09:00 +16°C° 0.2 mm 1 mps 739 mmHg 67%
    10:00 +16°C° 0.2 mm 1 mps 739 mmHg 73%
    11:00 +15°C° 0.2 mm 1 mps 739 mmHg 79%
    12:00 +15°C° 0.8 mm 2 mps 738 mmHg 81%
    13:00 +14°C° 0.8 mm 2 mps 738 mmHg 84%
    14:00 +14°C° 0.8 mm 2 mps 738 mmHg 87%
    15:00 +13°C° 0.6 mm 2 mps 737 mmHg 88%
    16:00 +12°C° 0.6 mm 3 mps 737 mmHg 90%
    17:00 +11°C° 0.6 mm 3 mps 737 mmHg 91%
    18:00 +11°C° 0.5 mm 3 mps 736 mmHg 92%
    19:00 +10°C° 0.5 mm 3 mps 736 mmHg 93%
    20:00 +10°C° 0.5 mm 3 mps 735 mmHg 95%
    21:00 +10°C° 1.5 mm 3 mps 735 mmHg 96%
    22:00 +10°C° 1.5 mm 4 mps 734 mmHg 97%
    23:00 +10°C° 1.5 mm 4 mps 734 mmHg 97%

    Tomorrow, 24 June, Sunday

    Time Temperature Precipitation Wind Pressure Humidity
    00:00 +11°C° 1.9 mm 3 mps 733 mmHg 98%
    01:00 +13°C° 1.9 mm 2 mps 733 mmHg 98%
    02:00 +13°C° 1.9 mm 2 mps 732 mmHg 99%
    03:00 +14°C° 0.3 mm 2 mps 732 mmHg 98%
    04:00 +15°C° 0.3 mm 2 mps 732 mmHg 98%
    05:00 +15°C° 0.3 mm 2 mps 731 mmHg 98%
    06:00 +16°C° 0 mm 2 mps 731 mmHg 96%
    07:00 +17°C° 0 mm 2 mps 731 mmHg 94%
    08:00 +18°C° 0 mm 2 mps 731 mmHg 93%
    09:00 +18°C° 0.3 mm 3 mps 732 mmHg 92%
    10:00 +18°C° 0.3 mm 4 mps 732 mmHg 92%
    11:00 +19°C° 0.3 mm 4 mps 732 mmHg 92%
    12:00 +17°C° 0.2 mm 5 mps 733 mmHg 86%
    13:00 +17°C° 0.2 mm 5 mps 733 mmHg 80%
    14:00 +17°C° 0.2 mm 5 mps 734 mmHg 73%
    15:00 +16°C° 0 mm 5 mps 734 mmHg 71%
    16:00 +17°C° 0 mm 4 mps 735 mmHg 69%
    17:00 +17°C° 0 mm 4 mps 735 mmHg 67%
    18:00 +15°C° 0 mm 4 mps 735 mmHg 72%
    19:00 +13°C° 0 mm 3 mps 736 mmHg 77%
    20:00 +13°C° 0 mm 2 mps 736 mmHg 81%
    21:00 +12°C° 0 mm 2 mps 737 mmHg 86%
    22:00 +10°C° 0 mm 2 mps 737 mmHg 91%
    23:00 +9°C° 0 mm 2 mps 737 mmHg 95%

    Day after tomorrow, 25 June, Monday

    Time Temperature Precipitation Wind Pressure Humidity
    00:00 +8°C° 0 mm 2 mps 738 mmHg 96%
    01:00 +8°C° 0 mm 2 mps 738 mmHg 96%
    02:00 +8°C° 0 mm 1 mps 739 mmHg 97%
    03:00 +9°C° 0 mm 1 mps 739 mmHg 94%
    04:00 +9°C° 0 mm 1 mps 739 mmHg 92%
    05:00 +10°C° 0 mm 1 mps 739 mmHg 89%
    06:00 +12°C° 0 mm 1 mps 740 mmHg 81%
    07:00 +15°C° 0 mm 2 mps 740 mmHg 72%
    08:00 +17°C° 0 mm 2 mps 740 mmHg 63%
    09:00 +18°C° 0 mm 2 mps 740 mmHg 60%
    10:00 +19°C° 0 mm 3 mps 740 mmHg 56%
    11:00 +21°C° 0 mm 3 mps 740 mmHg 52%
    12:00 +21°C° 0.1 mm 3 mps 740 mmHg 51%
    13:00 +22°C° 0.1 mm 3 mps 740 mmHg 51%
    14:00 +22°C° 0.1 mm 3 mps 741 mmHg 50%
    15:00 +21°C° 0.3 mm 3 mps 741 mmHg 56%
    16:00 +21°C° 0.3 mm 3 mps 741 mmHg 62%
    17:00 +20°C° 0.3 mm 2 mps 741 mmHg 68%
    18:00 +18°C° 0.1 mm 2 mps 741 mmHg 74%
    19:00 +17°C° 0.1 mm 2 mps 742 mmHg 79%
    20:00 +16°C° 0.1 mm 1 mps 742 mmHg 85%
    21:00 +14°C° 0 mm 1 mps 742 mmHg 88%
    22:00 +13°C° 0 mm 1 mps 742 mmHg 91%
    23:00 +12°C° 0 mm 1 mps 743 mmHg 94%

    26 June, Tuesday

    Time Temperature Precipitation Wind Pressure Humidity
    00:00 +12°C° 0 mm 1 mps 743 mmHg 94%
    01:00 +11°C° 0 mm 1 mps 743 mmHg 95%
    02:00 +11°C° 0 mm 1 mps 744 mmHg 95%
    03:00 +12°C° 0 mm 1 mps 744 mmHg 94%
    04:00 +12°C° 0 mm 1 mps 744 mmHg 92%
    05:00 +13°C° 0 mm 1 mps 745 mmHg 90%
    06:00 +15°C° 0 mm 1 mps 745 mmHg 82%
    07:00 +18°C° 0 mm 1 mps 745 mmHg 73%
    08:00 +20°C° 0 mm 1 mps 746 mmHg 64%
    09:00 +21°C° 0 mm 1 mps 746 mmHg 58%
    10:00 +22°C° 0 mm 1 mps 746 mmHg 52%
    11:00 +24°C° 0 mm 2 mps 746 mmHg 46%
    12:00 +24°C° 0 mm 2 mps 746 mmHg 47%
    13:00 +24°C° 0 mm 2 mps 746 mmHg 48%
    14:00 +24°C° 0 mm 2 mps 746 mmHg 48%
    15:00 +24°C° 0 mm 2 mps 746 mmHg 50%
    16:00 +24°C° 0 mm 2 mps 746 mmHg 52%
    17:00 +24°C° 0 mm 1 mps 746 mmHg 53%
    18:00 +22°C° 0 mm 1 mps 746 mmHg 62%
    19:00 +20°C° 0 mm 1 mps 746 mmHg 71%
    20:00 +18°C° 0 mm 1 mps 746 mmHg 79%
    21:00 +15°C° 0 mm 0 mps 746 mmHg 82%
    22:00 +14°C° 0 mm 0 mps 746 mmHg 86%
    23:00 +13°C° 0 mm 0 mps 746 mmHg 89%

    27 June, Wednesday

    Time Temperature Precipitation Wind Pressure Humidity
    00:00 +13°C° 0 mm 0 mps 747 mmHg 90%
    01:00 +14°C° 0 mm 1 mps 747 mmHg 90%
    02:00 +13°C° 0 mm 1 mps 747 mmHg 91%
    03:00 +14°C° 0 mm 1 mps 747 mmHg 89%
    04:00 +15°C° 0 mm 1 mps 747 mmHg 87%
    05:00 +16°C° 0 mm 1 mps 747 mmHg 85%
    06:00 +19°C° 0 mm 1 mps 747 mmHg 77%
    07:00 +21°C° 0 mm 1 mps 748 mmHg 69%
    08:00 +23°C° 0 mm 1 mps 748 mmHg 62%
    09:00 +24°C° 0 mm 1 mps 748 mmHg 57%
    10:00 +25°C° 0 mm 1 mps 748 mmHg 51%
    11:00 +27°C° 0 mm 1 mps 748 mmHg 46%
    12:00 +27°C° 0 mm 1 mps 747 mmHg 45%
    13:00 +28°C° 0 mm 1 mps 747 mmHg 44%
    14:00 +28°C° 0 mm 1 mps 747 mmHg 42%
    15:00 +27°C° 0 mm 1 mps 747 mmHg 45%
    16:00 +27°C° 0 mm 1 mps 747 mmHg 48%
    17:00 +26°C° 0 mm 1 mps 746 mmHg 52%
    18:00 +24°C° 0 mm 1 mps 747 mmHg 59%
    19:00 +22°C° 0 mm 1 mps 747 mmHg 66%
    20:00 +21°C° 0 mm 1 mps 747 mmHg 74%
    21:00 +20°C° 0 mm 1 mps 747 mmHg 75%
    22:00 +19°C° 0 mm 1 mps 747 mmHg 77%
    23:00 +18°C° 0 mm 1 mps 747 mmHg 79%

    28 June, Thursday

    Time Temperature Precipitation Wind Pressure Humidity
    00:00 +16°C° 0 mm 1 mps 747 mmHg 80%
    01:00 +16°C° 0 mm 1 mps 748 mmHg 82%
    02:00 +15°C° 0 mm 1 mps 748 mmHg 83%
    03:00 +16°C° 0 mm 1 mps 748 mmHg 83%
    04:00 +16°C° 0 mm 1 mps 748 mmHg 82%
    05:00 +18°C° 0 mm 1 mps 748 mmHg 82%
    06:00 +19°C° 0 mm 2 mps 748 mmHg 75%
    07:00 +21°C° 0 mm 2 mps 748 mmHg 68%
    08:00 +24°C° 0 mm 2 mps 749 mmHg 61%
    09:00 +25°C° 0 mm 2 mps 748 mmHg 55%
    10:00 +26°C° 0 mm 2 mps 748 mmHg 50%
    11:00 +27°C° 0 mm 3 mps 748 mmHg 45%
    12:00 +28°C° 0 mm 3 mps 748 mmHg 44%
    13:00 +28°C° 0 mm 3 mps 747 mmHg 43%
    14:00 +28°C° 0 mm 2 mps 747 mmHg 43%
    15:00 +28°C° 0 mm 2 mps 747 mmHg 45%
    16:00 +28°C° 0 mm 2 mps 747 mmHg 47%
    17:00 +27°C° 0 mm 2 mps 747 mmHg 49%
    18:00 +25°C° 0 mm 2 mps 746 mmHg 57%
    19:00 +23°C° 0 mm 2 mps 746 mmHg 66%
    20:00 +20°C° 0 mm 2 mps 746 mmHg 74%
    21:00 +19°C° 0 mm 2 mps 746 mmHg 75%
    22:00 +18°C° 0 mm 2 mps 746 mmHg 77%
    23:00 +17°C° 0 mm 2 mps 746 mmHg 78%
    Show more